TIANQI 17

导读

TIANQI 17即天启星座17星,也被冠名为“行知号”,由中国北京国电高科科技有限公司研制,属于天启低轨物联网卫星星座的组成部分。该卫星于北京时间2025年5月19日,经由谷神星一号海射型遥五运载火箭在中国海阳海域成功发射入轨。卫星质量约50kg,运行在近地轨道(LEO),目前处于在轨运行状态,主要提供低轨物联网通信服务,此次任务是天启星座规模化组网后的第五次专箭发射。

Basic Information
目录编号:
64059
目录名称:
TIANQI 17
国际标识:
2025-105B
轨道中心:
EARTH
卫星名称:
TIANQI 17
卫星全名:
TIANQI 17
卫星状态:
在轨 (已飞行474 天)
发射日期:
2025-05-19 UTC
国别 :
中国 (CN)
星等 :
--
Orbit Information
数据来源 国际轨道数据 AOE轨道数据
星历时间 2026-09-05T05:40:22+0800
10小时前
查看轨道信息
2026-08-30T02:00:00+0800
6天前
查看轨道信息
半长轴 7274.785km 7274.806km
偏心率 0.0009321 0.0009812
轨道倾角 44.981° 44.980°
近地点辐角 40.907° 9.382°
升交点赤经 27.000° 54.383°
平近点角 319.246° 288.665°
近地点 889.867km 889.53km
远地点 903.429km 903.808km
周期 102.918分钟 102.918分钟
每日圈数 13.991766 13.991706
Detailed Information
使用方式:
暂无
2D Orbit Map
3D Orbit Map
Orbit Altitude Analysis Chart
Orbit Inclination Analysis Chart
Orbit Comprehensive Analysis Chart
View Comprehensive Chart
Conjunction Data List
Event ID Objects TCA Miss Dist (km) Collision Risk Probability Collision Risk Index (CRI) Action
CDM_260903-060501-216706-405927
2026-09-03T
06:05:25+0000
0.913 km
远距离
3.531234E-5 中风险 0.66
CDM_260905-110302-976906-405926
2026-09-05T
11:03:21+0000
2.179 km
极远距离
1.793493E-6 低风险 0.4